Location: Unspecified
(47.4992°N, 121.7766°W)
Time: 03:05:37
(UTC-08:00)

Cosmos 2058 - Pass Details

Date: 03 February 2021
Orbit: 561 x 584 km, 82.5° (Epoch: 24 February)

Event Time Altitude Azimuth Distance (km) Brightness Sun altitude
Rises 18:19:57 0° 166° (SSE) 2,780 6.4 -11.7°
Reaches altitude 10° 18:22:15 10° 157° (SSE) 1,883 5.4 -12.1°
Maximum altitude 18:26:03 35° 92° (E) 937 3.5 -12.7°
Drops below altitude 10° 18:29:50 10° 26° (NNE) 1,885 5.2 -13.3°
Sets 18:32:08 0° 18° (NNE) 2,783 6.1 -13.7°
